Location: Barrio de Buenos Aires
(28.4500°N, 16.2667°W)
Time: 03:54:36
(UTC+00:00)

FengYun 1-2 T - Pass Details

Date: 24 January 2020
Orbit: 846 x 881 km, 98.7° (Epoch: 18 February)

Event Time Altitude Azimuth Distance (km) Brightness Sun altitude
Rises 19:29:06 0° 169° (S) 3,439 7.4 -11.5°
Reaches altitude 10° 19:31:28 10° 170° (S) 2,509 6.7 -12.0°
Maximum altitude 19:37:04 80° 257° (WSW) 891 4.4 -13.2°
Drops below altitude 10° 19:42:44 10° 345° (NNW) 2,537 6.7 -14.4°
Sets 19:45:08 0° 346° (NNW) 3,480 7.4 -14.9°
